Content
SEND FEEDBACK

Daily
Averages
Monthly
Summary
United States of America

COURTENAY, NORTH DAKOTA


Home > North America > United States > North Dakota
Elevation: 463 meters     Latitude: 47 13N     Longitude: 098 34W

WEATHER
 
SELECT A DAY
Number of Records: 203,694;   Date Range: 1/1/95 - 7/20/14
 
SHARE

PRINT THIS DATA

[ ← Previous Day ]
WEATHER ALMANAC - 13 FEBRUARY, 2013
[ Next Day → ]
[ °F ]   °C
Weather ElementAverageHighLow
Temperature-1.6 °C1 °C (2:05 pm)-5.6 °C (11:56 pm)
Dewpoint-3.3 °C-1 °C (1:43 pm)-6.7 °C (11:56 pm)
Humidity88.5 %96 % (11:56 am)76 % (1:56 am)
Barometer1004.1 hPa1009.8 hPa (11:56 pm)1000.3 hPa (1:43 pm)
Wind Speed12.1 km/h22.2 km/h (4:39 pm)
Weather ElementAverage
Visibility6.9 km
Wind DirectionSSW (200.2 °)

Weather ElementTotal
Precipitation4.57 mm
Heating Degree Days20.7 (Base 18.3)
Averaged from 48 records on 13 February, 2013
WEATHER CONDITIONS BREAKOUT
WIND DIRECTION BREAKOUT
WEATHER BY HOUR - 13 FEBRUARY, 2013
[ °F ]   °C
Local TimeTemperatureDewpointHumidityBarometerVisibilityWind DirectionWind SpeedGust SpeedPrecipitationEventsConditions
1:56 AM-0.6 °C-4.4 °C76 %1008.1 hPa16.1 kmWest (270°)16.7 km/hClear
2:56 AM-1.7 °C-5 °C78 %1007.8 hPa16.1 kmWest (270°)18.5 km/hClear
3:56 AM-2.2 °C-5.6 °C78 %1007.1 hPa16.1 kmWNW (290°)14.8 km/hMostly Cloudy
4:56 AM-2.8 °C-5.6 °C81 %1006.4 hPa16.1 kmWest (280°)13 km/hMostly Cloudy
5:56 AM-2.2 °C-5.6 °C78 %1006.1 hPa16.1 kmWest (270°)14.8 km/hClear
6:56 AM-2.8 °C-5 °C85 %1005.8 hPa16.1 kmWest (260°)9.3 km/hMostly Cloudy
7:56 AM-2.8 °C-5 °C85 %1005.1 hPa16.1 kmCalmOvercast
8:56 AM-2.2 °C-5 °C81 %1004.7 hPa16.1 kmSSW (210°)5.6 km/hOvercast
9:22 AM-2 °C-4 °C86 %1002.7 hPa2.9 kmSW (220°)7.4 km/h0 mmSnowLight Snow
9:34 AM-2 °C-4 °C86 %1002.4 hPa2.4 kmSSW (210°)5.6 km/h0 mmSnowLight Snow
9:48 AM-2 °C-3 °C93 %1002.4 hPa0.8 kmSouth (180°)5.6 km/h0 mmFog-SnowSnow
9:56 AM-2.2 °C-3.3 °C92 %1004.1 hPa1.3 kmSouth (190°)5.6 km/h0.25 mmSnowLight Snow
10:11 AM-2 °C-3 °C93 %1002 hPa1.9 kmCalm0 mmSnowLight Snow
10:35 AM-2 °C-3 °C93 %1001.7 hPa1.3 kmSouth (180°)5.6 km/h0.25 mmSnowLight Snow
10:56 AM-1.1 °C-2.2 °C92 %1003.4 hPa1.3 kmCalm0.51 mmSnowLight Snow
11:56 AM-1.1 °C-1.7 °C96 %1002.7 hPa1.3 kmCalm0.76 mmSnowLight Snow
12:16 PM-1 °C-2 °C93 %1000.7 hPa1.6 kmCalm0.25 mmSnowLight Snow
12:56 PM0.6 °C-1.7 °C85 %1002 hPa1.9 kmCalm0.51 mmSnowLight Snow
1:43 PM0 °C-1 °C93 %1000.3 hPa2.4 kmNorth (10°)5.6 km/h0 mmSnowLight Snow
1:50 PM0 °C-1 °C93 %1000.3 hPa3.2 kmNorth (10°)5.6 km/h0 mmSnowLight Snow
1:56 PM0.6 °C-1.1 °C89 %1002 hPa3.2 kmNNE (20°)5.6 km/h0 mmSnowLight Snow
2:05 PM1 °C-1 °C87 %1000.3 hPa1.9 kmNNE (20°)7.4 km/h0.25 mmSnowLight Snow
2:31 PM0 °C-1 °C93 %1000.3 hPa1.3 kmNNE (20°)7.4 km/h0.25 mmSnowLight Snow
2:52 PM0 °C-1 °C93 %1000.7 hPa1.9 kmNNE (20°)11.1 km/h0.51 mmSnowLight Snow
2:56 PM0 °C-1.1 °C92 %1002.7 hPa1.9 kmNorth (360°)9.3 km/h0.51 mmSnowLight Snow
3:42 PM0 °C-2 °C87 %1001.4 hPa3.2 kmNorth (10°)14.8 km/h0.25 mmSnowLight Snow
3:56 PM0 °C-1.7 °C88 %1003.4 hPa2.9 kmNorth (10°)18.5 km/h0.25 mmSnowLight Snow
4:06 PM-1 °C-2 °C93 %1001.7 hPa4 kmNorth (10°)16.7 km/h0 mmSnowLight Snow
4:23 PM-1 °C-2 °C93 %1001.7 hPa4.8 kmNorth (10°)20.4 km/h0 mmSnowLight Snow
4:39 PM-1 °C-2 °C93 %1002 hPa9.7 kmNorth (360°)22.2 km/h0 mmSnowLight Snow
4:56 PM-0.6 °C-2.2 °C89 %1004.4 hPa4.8 kmNorth (360°)22.2 km/h0 mmSnowLight Snow
5:38 PM-1 °C-3 °C86 %1003 hPa4 kmNorth (350°)20.4 km/h0 mmSnowLight Snow
5:56 PM-1.7 °C-3.3 °C89 %1005.4 hPa2.9 kmNorth (360°)22.2 km/h0 mmSnowLight Snow
6:09 PM-2 °C-3 °C93 %1003.7 hPa4 kmNorth (350°)20.4 km/h0 mmSnowLight Snow
6:17 PM-2 °C-3 °C93 %1004.1 hPa6.4 kmNorth (360°)22.2 km/h0 mmSnowLight Snow
6:26 PM-2 °C-4 °C86 %1004.1 hPa4 kmNorth (360°)20.4 km/h0 mmSnowLight Snow
6:31 PM-2 °C-4 °C86 %1004.1 hPa2.9 kmNorth (360°)18.5 km/h0 mmSnowLight Snow
6:36 PM-2 °C-4 °C86 %1004.4 hPa3.2 kmNorth (350°)14.8 km/h0 mmSnowLight Snow
6:47 PM-2 °C-4 °C86 %1004.7 hPa4 kmNorth (350°)20.4 km/h0 mmSnowLight Snow
6:56 PM-2.2 °C-3.9 °C88 %1007.1 hPa3.2 kmNNW (340°)22.2 km/h0 mmSnowLight Snow
7:26 PM-2 °C-4 °C86 %1005.1 hPa9.7 kmNNW (340°)16.7 km/h0 mmOvercast
7:56 PM-2.8 °C-3.9 °C92 %1007.8 hPa16.1 kmNNW (340°)14.8 km/h0 mmOvercast
8:49 PM-3 °C-4 °C93 %1006.4 hPa16.1 kmNNW (340°)14.8 km/hOvercast
8:56 PM-2.8 °C-4.4 °C89 %1008.5 hPa16.1 kmNNW (340°)14.8 km/hOvercast
9:56 PM-2.8 °C-4.4 °C89 %1009.1 hPa16.1 kmNorth (350°)16.7 km/hOvercast
10:21 PM-3 °C-4 °C93 %1007.1 hPa16.1 kmNNW (340°)13 km/hOvercast
10:56 PM-3.9 °C-5.6 °C88 %1009.5 hPa6.4 kmNNW (330°)13 km/h0 mmSnowLight Snow
11:56 PM-5.6 °C-6.7 °C92 %1009.8 hPa6.4 kmCalm0 mmSnowLight Snow
Hourly data recorded from KJMS, located 0 kilometers away from Courtenay, North Dakota







STORIES FROM OUR PARTNERS